TimeIST,TemperatureF,Dew PointF,Humidity,Sea Level PressureIn,VisibilityMPH,Wind Direction,Wind SpeedMPH,Gust SpeedMPH,PrecipitationIn,Events,Conditions,WindDirDegrees,DateUTC
12:00 AM,68.0,44.6,43,30.09,1.2,Variable,1.2,-,N/A,,Smoke,0,2013-11-04 18:30:00
1:00 AM,68.0,42.8,40,30.09,1.2,East,4.6,-,N/A,,Smoke,80,2013-11-04 19:30:00
2:00 AM,68.0,42.8,40,30.06,1.2,ENE,4.6,-,N/A,,Smoke,70,2013-11-04 20:30:00
2:30 AM,67,44,31,30.05,1,East,4.6,,,,Smoke,90,2013-11-04 21:00:00
4:00 AM,68.0,42.8,40,30.06,1.2,ENE,5.8,-,N/A,,Smoke,70,2013-11-04 22:30:00
6:00 AM,64.4,42.8,45,30.06,1.2,East,4.6,-,N/A,,Smoke,80,2013-11-05 00:30:00
7:00 AM,64.4,42.8,45,30.09,1.2,East,3.5,-,N/A,,Smoke,90,2013-11-05 01:30:00
8:00 AM,68.0,44.6,43,30.12,1.2,ENE,5.8,-,N/A,,Smoke,70,2013-11-05 02:30:00
8:30 AM,69,46,32,30.08,1,East,4.6,,,,Smoke,90,2013-11-05 03:00:00
9:00 AM,73.4,42.8,33,30.12,1.2,East,6.9,-,N/A,,Smoke,80,2013-11-05 03:30:00
10:00 AM,75.2,44.6,34,30.15,1.2,East,6.9,-,N/A,,Smoke,80,2013-11-05 04:30:00
11:00 AM,78.8,46.4,32,30.12,1.2,ESE,5.8,-,N/A,,Smoke,120,2013-11-05 05:30:00
11:30 AM,82,47,19,30.03,1,SE,6.9,,,,Smoke,140,2013-11-05 06:00:00
12:00 PM,80.6,44.6,28,30.09,1.2,South,5.8,-,N/A,,Smoke,170,2013-11-05 06:30:00
1:00 PM,82.4,42.8,25,30.06,1.2,SSW,5.8,-,N/A,,Smoke,200,2013-11-05 07:30:00
2:00 PM,82.4,42.8,25,30.04,1.2,SSE,5.8,17.3,N/A,,Smoke,150,2013-11-05 08:30:00
2:30 PM,85,41,12,29.96,1,SE,4.6,,,,Haze,140,2013-11-05 09:00:00
3:00 PM,84.2,39.2,20,30.04,1.6,WSW,4.6,-,N/A,,Haze,250,2013-11-05 09:30:00
3:30 PM,84.2,37.4,19,30.01,1.6,Variable,3.5,-,N/A,,Haze,0,2013-11-05 10:00:00
4:00 PM,84.2,39.2,20,30.01,1.6,Variable,3.5,-,N/A,,Haze,0,2013-11-05 10:30:00
5:00 PM,82.4,41.0,23,30.01,1.6,Variable,3.5,-,N/A,,Haze,0,2013-11-05 11:30:00
6:00 PM,75.2,44.6,34,30.04,1.6,Calm,Calm,-,N/A,,Smoke,0,2013-11-05 12:30:00
6:30 PM,73.4,46.4,38,30.04,1.1,Calm,Calm,-,N/A,,Smoke,0,2013-11-05 13:00:00
7:00 PM,73.4,46.4,38,30.04,1.1,Variable,2.3,-,N/A,,Smoke,0,2013-11-05 13:30:00
7:30 PM,71.6,44.6,38,30.06,1.1,Calm,Calm,-,N/A,,Smoke,0,2013-11-05 14:00:00
8:00 PM,69.8,46.4,43,30.06,1.1,Calm,Calm,-,N/A,,Smoke,0,2013-11-05 14:30:00
8:30 PM,69,46,33,30.02,1,Calm,Calm,,,,Smoke,,2013-11-05 15:00:00
9:00 PM,66.2,48.2,52,30.06,1.1,Calm,Calm,-,N/A,,Smoke,0,2013-11-05 15:30:00
10:00 PM,68.0,44.6,43,30.06,1.2,Variable,1.2,-,N/A,,Smoke,0,2013-11-05 16:30:00
11:00 PM,66.2,42.8,43,30.06,1.2,Calm,Calm,-,N/A,,Smoke,0,2013-11-05 17:30:00
11:30 PM,66,44,34,30.02,1,East,4.6,,,,Smoke,90,2013-11-05 18:00:00